Weather in Uagadugu

Burkina Faso     12˚21′28″N   1˚31′12″W
temp.,
°C
wind,
m/s
gust,
m/s
humid.,
%
clouds,
%
prec.,
mm/h
press.,
hPa
HPBL,
m
1 december, tue
tue100:00+27˚ene410200 0.0 1012264
03:00+26˚ene47230 0.0 1011166
06:00+24˚ene35253 0.0 1012127
09:00+30˚ene58180 0.0 1014446
12:00+36˚ene710110 0.0 10112426
15:00+36˚ene710922 0.0 10092634
18:00+31˚ene481110 0.0 1009471
21:00+28˚ene49130 0.0 1012251
2 december, wed
wed200:00+26˚ene47140 0.0 1011197
03:00+24˚ene36160 0.0 1011144
06:00+23˚ene35180 0.0 1011123
09:00+29˚e57140 0.0 1013434
12:00+36˚e5790 0.0 10102134
15:00+37˚e6780 0.0 10073050
18:00+32˚ene48120 0.0 1009305
21:00+29˚ene47150 0.0 1012169
3 december, thu
thu300:00+26˚ene37180 0.0 1011169
03:00+24˚ene24210 0.0 1011123
06:00+23˚e34220 0.0 1012129
09:00+30˚e47160 0.0 1013371
12:00+37˚e67100 0.0 10112479
15:00+38˚e56924 0.0 10083101
18:00+31˚e351312 0.0 1009117
21:00+28˚ene48150 0.0 1011217
4 december, fri
fri400:00+25˚ese35180 0.0 1011158
03:00+23˚e23200 0.0 101193
06:00+23˚e23200 0.0 101186
09:00+30˚e35140 0.0 1013352
12:00+37˚e45100 0.0 10102319
15:00+38˚e4590 0.0 10083051
18:00+31˚e34130 0.0 1009111
21:00+28˚e23150 0.0 101157
5 december, sat
sat500:00+25˚e12180 0.0 101146
03:00+25˚e23180 0.0 101051
06:00+24˚e34200 0.0 101087
09:00+30˚ese35160 0.0 1012366
12:00+36˚ese45110 0.0 10101510
15:00+37˚ese33100 0.0 10072950
18:00+31˚sse23140 0.0 100861
21:00+27˚ese12180 0.0 101025